Columbia, MO

11:31 AM CDT on March 30, 2017 (GMT -0500)
Columbia Regional

Weather History for KCOU - January, 2015

Change the Weather History Date:

Sunday, January 4, 2015

  Actual Average Record
Temperature  
Mean Temperature 24 °F 30 °F  
Max Temperature 36 °F 38 °F 66 °F (1939)
Min Temperature 11 °F 21 °F -8 °F (1999)
Degree Days  
Heating Degree Days 41 35  
Month to date heating degree days 134 140  
Since 1 July heating degree days 2085 2135  
Cooling Degree Days 0 0  
Month to date cooling degree days 0 0  
Year to date cooling degree days 0 0  
Moisture  
Dew Point 13 °F    
Average Humidity 76    
Maximum Humidity 100    
Minimum Humidity 51    
Precipitation  
Precipitation 0.02 in 0.06 in 1.18 in (1922)
Month to date precipitation 0.45 0.26  
Year to date precipitation 0.45 0.26  
Snow  
Snow T in 0.20 in 4.40 in (1977)
Month to date snowfall T 0.7  
Since 1 July snowfall 1.8 6.0  
Snow Depth 0.00 in    
Sea Level Pressure  
Sea Level Pressure 30.35 in    
Wind  
Wind Speed 16 mph (NW)    
Max Wind Speed 28 mph    
Max Gust Speed 33 mph    
Visibility 9 miles    
Events Rain , Snow    
T = Trace of Precipitation, MM = Missing Value Source: NWS Daily Summary

Daily Weather History Graph

Daily Weather History Graph

Search for Another Location

Airport or City:

Trip Planner

Search our weather history database for the weather conditions in past years. The results will help you decide how hot, cold, wet, or windy it might be!

Date:

Astronomy

Jan. 04, 2015 Rise Set
Actual Time 7:27 AM CST 5:00 PM CST
Civil Twilight 6:57 AM CST 5:29 PM CST
Nautical Twilight 6:24 AM CST 6:03 PM CST
Astronomical Twilight 5:52 AM CST 6:35 PM CST
Moon 5:00 PM CST (1/4) 6:40 AM CST (1/4)
Length of Visible Light 10h 32m
Length of Day
9h 32m
Full, 100% of the Moon is Illuminated
Jan 4
Full
Jan 4
Full
Jan 13
Last Quarter
Jan 20
New
Jan 26
First Quarter

Hourly Weather History & Observations

Time (CST) Temp. Windchill Dew Point Humidity Pressure Visibility Wind Dir Wind Speed Gust Speed Precip Events Conditions
12:54 AM 35.1 °F 27.4 °F 34.0 °F 96% 29.90 in 7.0 mi WNW 10.4 mph - 0.01 in Rain Light Rain
1:47 AM 35.1 °F 26.9 °F 34.0 °F 96% 29.89 in 10.0 mi NW 11.5 mph - 0.01 in   Overcast
1:54 AM 35.1 °F 25.5 °F 33.1 °F 92% 29.91 in 10.0 mi NW 15.0 mph - 0.01 in   Overcast
2:54 AM 34.0 °F 23.4 °F 32.0 °F 92% 29.96 in 6.0 mi NW 17.3 mph 23.0 mph N/A   Overcast
3:54 AM 32.0 °F 20.8 °F 28.9 °F 88% 30.00 in 6.0 mi WNW 17.3 mph 26.5 mph N/A   Overcast
4:54 AM 26.1 °F 11.0 °F 23.0 °F 88% 30.06 in 10.0 mi NW 24.2 mph 27.6 mph N/A   Overcast
5:16 AM 25.0 °F 11.7 °F 21.0 °F 85% 30.05 in 7.0 mi WNW 17.3 mph 27.6 mph 0.00 in Snow Light Snow
5:54 AM 23.0 °F 8.7 °F 19.4 °F 86% 30.08 in 7.0 mi NW 18.4 mph - N/A Snow Light Snow
6:54 AM 19.9 °F 4.8 °F 15.1 °F 81% 30.18 in 10.0 mi WNW 18.4 mph 29.9 mph 0.00 in   Overcast
7:27 AM 19.0 °F 4.0 °F 14.0 °F 81% 30.19 in 7.0 mi WNW 17.3 mph 25.3 mph 0.00 in Snow Light Snow
7:54 AM 18.0 °F 1.3 °F 12.0 °F 78% 30.24 in 8.0 mi WNW 20.7 mph 31.1 mph 0.00 in Snow Light Snow
8:40 AM 17.1 °F 0.6 °F 10.0 °F 74% 30.24 in 7.0 mi NW 19.6 mph - 0.00 in Snow Light Snow
8:54 AM 16.0 °F -0.4 °F 10.9 °F 81% 30.29 in 5.0 mi WNW 18.4 mph 28.8 mph 0.00 in Snow Light Snow
9:54 AM 15.1 °F -2.5 °F 8.1 °F 74% 30.34 in 9.0 mi WNW 20.7 mph 28.8 mph 0.00 in Snow Light Snow
10:54 AM 15.1 °F -2.0 °F 8.1 °F 74% 30.37 in 9.0 mi WNW 19.6 mph 26.5 mph 0.00 in Snow Light Snow
11:54 AM 15.1 °F -2.9 °F 8.1 °F 74% 30.39 in 10.0 mi WNW 21.9 mph 28.8 mph 0.00 in   Overcast
12:54 PM 16.0 °F -0.9 °F 9.0 °F 74% 30.42 in 10.0 mi WNW 19.6 mph - 0.00 in   Overcast
1:54 PM 19.0 °F 3.6 °F 10.0 °F 68% 30.46 in 9.0 mi WNW 18.4 mph 29.9 mph 0.00 in   Overcast
2:26 PM 19.9 °F - 9.0 °F 62% 30.43 in 10.0 mi North - - N/A   Partly Cloudy
2:31 PM 19.9 °F 5.2 °F 8.1 °F 60% 30.43 in 10.0 mi WNW 17.3 mph 23.0 mph N/A   Partly Cloudy
2:54 PM 19.9 °F 3.5 °F 7.0 °F 57% 30.48 in 10.0 mi NW 21.9 mph - N/A   Clear
3:54 PM 19.9 °F 3.9 °F 5.0 °F 52% 30.51 in 10.0 mi NW 20.7 mph 27.6 mph N/A   Clear
4:54 PM 18.0 °F 4.2 °F 3.9 °F 54% 30.56 in 10.0 mi NW 13.8 mph - N/A   Clear
5:54 PM 17.1 °F 5.0 °F 5.0 °F 59% 30.60 in 10.0 mi WNW 10.4 mph - N/A   Clear
6:54 PM 16.0 °F 2.3 °F 5.0 °F 62% 30.62 in 10.0 mi NW 12.7 mph - N/A   Clear
7:54 PM 15.1 °F 2.5 °F 5.0 °F 64% 30.65 in 10.0 mi NW 10.4 mph - N/A   Clear
8:54 PM 14.0 °F 2.0 °F 5.0 °F 67% 30.69 in 10.0 mi WNW 9.2 mph - N/A   Clear
9:54 PM 12.9 °F 0.7 °F 3.9 °F 67% 30.69 in 10.0 mi WNW 9.2 mph - N/A   Clear
10:54 PM 12.0 °F -0.4 °F 3.9 °F 70% 30.70 in 10.0 mi NW 9.2 mph - N/A   Clear
11:54 PM 10.9 °F -1.8 °F 3.0 °F 70% 30.72 in 10.0 mi WNW 9.2 mph - N/A   Clear